Location: Birkenwerder
(52.6919°N, 13.2774°E)
Time: 22:36:32
(UTC+00:00)

Cosmos 2360 Rocket - Pass Details

Date: 07 June 2020
Orbit: 832 x 846 km, 71.0° (Epoch: 11 July)

Event Time Altitude Azimuth Distance (km) Brightness Sun altitude
Exits shadow 00:43:38 - 157° (SSE) 2,980 4.6 -11.6°
Reaches altitude 10° 00:45:26 10° 146° (SSE) 2,444 4.3 -11.5°
Maximum altitude 00:49:25 20° 101° (E) 1,831 4.1 -11.2°
Drops below altitude 10° 00:53:26 10° 55° (NE) 2,463 5.6 -11.0°
Sets 00:56:28 0° 40° (NE) 3,405 7.1 -10.8°
